Temperature
20 21 20 20 20 20 20 20 20 20 20 20 20 20 19 19 19 19 19 19 19 19 18 18 18 18 18 18 18 18 18 18 17 17 17 17 17 17 17 17 17 17 17
21 21 20 21 20 20 20 20 20 20 20 20 19 19 19 19 19 19 19 19 19 19 18 18 18 18 18 18 18 18 18 18 18 17 17 17 17 17 17 17 17 17 17
21 21 20 21 20 20 20 20 20 19 19 19 19 19 19 19 19 19 19 19 18 18 18 18 18 18 18 18 18 18 18 18 18 17 17 17 17 17 17 17 17 17 17
21 21 21 20 20 20 20 20 20 19 19 19 19 19 19 19 19 19 19 19 18 18 18 18 18 18 18 18 18 18 18 18 17 17 17 17 17 17 17 17 17 17 17
21 21 21 21 20 20 20 20 20 19 19 19 19 19 19 19 19 19 19 19 18 18 18 18 18 18 18 18 18 18 18 18 17 17 17 17 17 17 17 17 17 17 17
21 21 21 21 20 20 20 20 20 19 19 19 19 19 19 19 19 19 19 19 19 18 18 18 18 18 18 18 18 18 18 18 18 18 18 18 17 17 17 17 17 17 17
21 21 20 20 20 20 20 20 20 19 19 19 19 19 19 19 19 19 19 19 19 19 18 18 18 18 18 18 17 17 17 18 18 18 18 18 18 17 17 17 17 17 17
21 21 20 20 20 20 20 20 20 19 19 19 19 19 19 19 19 19 19 19 19 19 19 18 18 18 18 18 17 17 17 18 18 18 18 18 18 18 17 17 17 17 17
21 21 20 20 20 20 20 20 19 19 19 19 19 19 18 18 18 18 19 19 19 19 18 18 18 18 18 18 17 17 18 18 18 18 18 18 18 18 17 17 17 17 17
21 20 20 20 20 20 20 19 19 19 19 19 19 18 18 18 18 18 18 18 18 19 18 18 18 18 18 18 17 17 18 18 18 18 18 18 18 18 18 17 17 17 17
20 20 20 20 20 19 19 19 19 19 19 19 18 18 18 18 18 18 18 18 18 18 18 18 18 18 18 18 17 17 18 18 18 18 18 18 18 18 18 17 17 17 17
20 20 20 20 19 19 19 19 19 19 18 18 18 18 18 18 18 18 18 18 18 18 18 18 18 18 18 18 18 17 18 18 18 18 18 18 18 18 18 18 17 17 17
20 19 19 19 19 19 19 19 19 19 18 18 18 18 17 17 17 17 18 18 18 18 18 18 18 18 18 18 18 18 18 18 18 18 18 18 18 18 18 18 17 17 17
19 19 19 19 19 19 19 19 19 18 18 18 18 17 17 17 17 17 17 17 17 17 17 17 17 17 18 18 17 17 17 18 17 18 18 17 17 17 18 18 17 17 17
19 19 19 19 19 19 18 19 18 18 18 18 18 17 17 17 17 17 17 17 17 17 17 17 17 17 17 17 17 17 17 17 17 17 17 17 17 17 17 17 17 17 17
19 19 19 19 19 18 18 18 18 18 18 18 18 17 17 17 17 17 17 17 17 17 17 17 17 17 17 17 17 17 17 17 17 17 17 17 17 17 17 17 17 17 17
19 19 19 19 18 18 18 18 18 18 18 18 17 18 17 17 17 17 17 17 17 16 16 16 16 17 17 17 17 17 17 17 17 17 17 17 17 17 17 17 17 17 17
19 19 18 18 18 18 18 18 18 18 18 18 18 18 17 17 17 17 17 16 16 16 16 16 16 16 16 16 16 17 17 17 17 17 17 17 17 17 17 17 17 17 17
19 18 18 18 18 18 18 18 18 18 18 18 17 17 17 17 17 17 16 16 16 16 16 16 16 16 16 16 16 16 16 16 16 16 17 16 16 17 17 17 17 17 17
18 18 18 18 18 18 18 18 18 18 17 17 17 17 17 17 17 16 16 16 16 16 16 16 16 16 16 16 16 16 16 16 16 16 16 16 16 16 16 16 16 16 16
18 18 18 18 18 18 18 18 18 17 17 17 17 17 17 17 16 16 16 16 16 16 16 16 16 16 16 16 16 16 16 16 16 16 16 16 16 16 16 16 16 16 16
18 18 18 18 18 18 18 18 18 17 17 17 17 17 17 16 16 16 16 16 16 15 15 15 15 16 16 16 16 16 16 16 16 16 16 16 16 16 16 16 16 16 16
18 18 17 18 18 18 18 18 17 17 17 17 17 17 17 16 16 16 16 15 15 15 15 15 15 16 16 16 16 16 16 16 16 16 16 16 16 16 16 16 16 16 16
17 17 18 17 17 17 17 18 18 17 17 17 17 17 16 16 16 15 15 15 15 15 15 15 15 15 15 16 16 16 16 16 16 16 16 16 16 16 16 16 16 16 16
17 17 17 17 17 17 17 18 18 17 17 17 17 16 16 16 16 15 15 15 15 15 15 15 15 15 15 15 16 16 16 16 16 16 16 16 16 16 16 16 16 16 16
17 17 17 17 17 17 17 17 17 17 17 17 17 16 16 16 16 16 15 15 15 15 15 15 15 15 15 15 15 16 16 16 16 16 16 16 16 16 16 16 16 16 16
Wind_Speed
10 15 22 21 21 21 20 20 19 19 19 18 18 18 18 18 18 17 16 16 15 14 13 13 12 12 12 12 12 13 13 14 15 16 17 16 17 18 18 18 18 17 19
14 19 23 22 22 21 21 20 19 19 18 18 18 17 17 17 17 16 15 15 15 14 13 12 12 12 12 12 12 12 13 14 15 16 15 15 16 16 17 17 16 16 18
18 19 22 23 23 22 21 20 20 19 18 17 17 17 16 16 16 15 15 14 14 14 13 12 12 12 12 12 12 12 12 14 15 15 14 13 14 16 17 17 17 17 17
19 19 21 24 23 22 21 21 20 19 18 17 16 16 16 15 15 15 14 14 14 13 12 12 12 11 11 11 11 11 11 13 14 14 11 11 13 16 17 17 17 17 17
16 19 22 24 24 23 22 21 20 19 18 17 16 16 16 15 15 14 14 13 13 12 12 11 11 10 10 10 10 10 10 11 12 12 11 12 13 15 16 16 16 16 16
14 18 22 24 23 23 22 21 20 19 18 17 16 16 15 15 14 14 13 13 12 12 11 10 9 9 9 9 10 10 10 10 11 11 12 12 12 15 16 16 16 15 15
14 16 21 24 23 22 21 21 20 19 18 16 16 15 15 14 14 13 12 12 12 11 10 9 8 8 8 9 9 10 10 11 11 11 11 11 12 14 15 15 15 15 15
17 15 19 23 23 22 21 20 20 19 18 16 16 15 14 13 13 12 12 11 11 10 9 8 7 7 6 7 8 10 10 11 11 10 10 11 13 14 14 14 14 14 14
15 14 15 19 21 21 21 20 19 18 17 16 15 14 13 12 12 11 11 10 10 10 8 7 6 5 4 5 6 8 10 11 12 10 11 11 13 14 14 14 14 14 14
14 13 11 14 16 17 18 19 19 18 16 15 14 13 12 11 11 11 10 10 9 9 8 6 5 3 2 3 5 7 9 11 10 10 9 11 14 14 14 14 14 13 13
13 11 10 10 12 15 16 17 17 17 15 14 13 12 11 9 9 10 10 9 9 8 7 6 5 3 1 1 2 6 8 8 9 9 9 12 14 14 14 14 13 13 13
14 12 11 11 10 12 13 14 13 13 12 11 9 9 8 8 8 9 10 9 9 8 7 6 5 4 2 1 1 4 6 7 7 8 9 13 15 14 14 14 13 13 13
16 14 11 11 10 9 8 11 9 9 10 9 8 8 7 6 6 6 6 6 6 6 5 5 4 3 2 2 2 4 6 7 7 8 10 14 15 15 15 14 14 14 13
14 13 11 11 9 7 9 8 8 7 7 6 7 7 6 4 4 4 4 4 4 4 4 3 3 3 3 3 5 6 7 8 9 9 11 15 15 15 15 15 14 14 14
13 13 13 12 9 7 6 6 7 6 7 7 7 7 8 5 3 3 3 3 3 4 4 3 3 3 2 2 5 7 7 9 10 10 10 15 16 15 15 15 15 14 14
13 12 11 12 9 8 6 5 6 7 9 9 8 9 10 7 5 3 2 2 2 3 4 4 4 2 2 2 3 6 7 9 10 10 10 13 15 16 16 16 15 15 15
14 12 12 13 10 9 8 6 8 9 10 8 8 10 9 8 6 4 3 2 1 2 3 3 2 2 2 2 2 4 5 6 8 8 9 9 11 14 16 15 15 15 15
13 13 13 13 11 10 8 7 7 9 9 8 9 9 8 8 7 6 3 2 2 4 4 3 3 3 2 2 1 1 2 4 6 8 8 9 10 10 13 15 15 15 15
12 13 11 11 12 10 9 7 8 8 8 9 9 8 8 8 8 6 3 2 4 4 3 3 3 3 2 2 1 1 1 2 2 5 5 8 9 10 10 12 14 14 15
9 11 11 10 11 10 9 8 7 7 5 7 7 7 8 8 8 6 4 4 5 4 4 3 3 3 2 1 1 2 1 1 1 2 3 4 7 9 10 10 11 13 15
9 10 11 11 10 10 8 8 7 6 5 4 4 8 8 8 8 7 4 4 4 4 3 3 3 3 2 1 3 3 4 2 0 1 1 2 3 6 8 9 9 10 11
11 10 10 10 10 9 8 6 5 6 4 4 3 5 7 8 7 7 5 4 4 4 5 4 3 2 2 2 3 3 3 4 3 1 0 2 1 2 3 6 8 9 8
11 12 12 10 10 9 8 7 7 5 4 3 3 3 4 8 7 7 7 5 4 4 4 3 3 4 2 3 2 4 4 3 2 3 2 1 1 1 1 3 6 7 8
11 10 10 9 9 9 9 10 10 7 6 5 5 4 3 6 7 8 7 6 5 4 4 3 4 3 4 2 2 2 2 3 3 0 3 3 2 1 1 2 3 6 7
11 11 10 10 9 8 9 10 9 7 5 4 4 5 4 3 5 7 8 7 5 4 4 4 4 4 3 3 2 1 3 3 3 3 1 3 3 2 2 2 3 5 7
9 10 10 10 9 8 9 9 9 9 8 8 6 6 4 3 3 5 6 6 5 4 4 4 4 4 3 3 3 2 2 2 1 2 2 1 2 3 2 2 2 5 7
Wind_Direction
149 151 145 139 134 130 126 122 118 115 112 109 107 106 105 104 104 104 105 105 104 102 99 96 95 93 93 96 100 105 109 110 111 113 115 116 115 113 112 111 110 110 111
148 150 145 141 137 133 130 126 123 121 118 116 114 112 110 109 109 108 108 107 106 104 101 97 94 93 93 96 100 105 109 111 113 114 114 114 114 115 115 113 112 114 113
143 147 144 141 138 135 133 130 128 126 124 122 120 118 116 115 114 112 111 109 108 106 103 98 94 92 93 94 97 100 106 112 114 111 109 107 110 114 117 116 114 114 113
142 144 143 142 139 137 136 134 132 130 129 127 126 124 122 120 118 116 114 112 110 108 105 100 96 93 93 94 95 97 104 115 118 114 111 110 113 117 119 118 115 114 114
140 142 144 142 140 140 138 137 135 134 133 131 130 128 126 123 122 120 119 116 114 111 107 101 96 93 92 93 92 93 101 112 119 115 114 110 115 121 121 119 117 115 115
138 141 144 143 141 141 141 140 138 138 137 136 134 131 130 129 127 126 124 120 117 114 110 106 98 94 92 89 86 86 94 109 116 117 119 120 122 126 125 122 120 119 118
138 141 145 143 143 143 143 143 142 142 141 141 139 137 135 135 134 132 130 127 123 120 117 113 105 97 91 86 82 83 91 118 122 125 125 127 128 129 127 124 122 121 121
142 141 145 145 145 146 146 146 146 145 146 146 145 144 143 143 142 140 138 137 134 130 126 121 115 105 94 84 81 84 94 125 134 137 132 132 135 132 129 127 126 125 124
141 141 144 149 149 149 149 149 149 150 151 152 151 150 149 149 150 150 150 149 146 144 141 135 126 116 102 85 79 87 97 127 136 141 139 139 141 138 137 135 133 131 130
143 146 146 149 149 150 151 152 153 154 155 156 156 156 157 159 160 161 163 164 161 157 156 154 149 142 116 86 85 95 107 127 138 142 144 152 150 147 146 143 141 138 135
149 150 149 149 150 151 152 156 157 157 160 161 163 164 164 166 169 173 178 179 175 172 172 174 175 182 200 36 97 109 110 128 134 147 161 164 159 156 154 151 149 146 142
158 158 157 155 156 157 158 154 158 158 162 165 168 166 166 174 183 187 192 192 189 187 189 194 195 202 218 288 137 126 128 145 153 161 175 173 167 165 162 159 157 155 151
163 163 161 160 162 164 153 155 160 158 162 168 172 171 168 171 179 179 182 192 193 193 197 206 205 202 204 190 148 141 143 146 159 168 184 182 177 174 169 167 164 162 160
161 163 160 159 162 162 156 162 162 157 161 161 162 158 148 140 142 153 160 172 173 184 188 187 190 201 199 173 146 138 140 148 165 175 190 191 185 180 177 175 173 171 170
162 164 161 156 157 159 156 163 159 156 155 148 138 137 137 129 129 136 146 153 163 171 170 164 177 184 167 148 136 137 149 158 168 177 195 198 191 185 184 184 182 181 180
161 160 155 152 157 157 159 159 150 149 142 132 126 127 128 127 125 117 108 121 129 150 165 167 169 161 156 145 137 141 153 157 170 185 193 200 196 193 191 190 190 189 188
160 156 156 154 158 156 153 157 146 142 136 129 125 123 122 121 116 111 109 107 106 126 141 131 117 110 126 129 125 138 148 160 173 185 194 200 203 204 201 198 197 197 196
158 161 162 155 154 152 151 139 134 136 133 131 126 119 113 108 106 105 106 99 85 93 106 107 94 93 84 98 110 141 153 166 174 186 196 202 207 210 211 208 206 205 203
164 163 158 153 150 150 143 130 130 130 129 132 128 118 110 103 104 104 97 83 90 91 86 103 87 106 105 99 123 131 148 157 166 180 193 205 211 212 211 215 215 214 211
162 159 152 154 149 142 131 119 117 112 121 129 127 124 116 106 102 102 93 79 90 91 82 86 87 79 108 122 78 70 73 157 168 172 195 199 211 212 210 214 216 220 221
158 160 157 154 152 145 139 135 133 135 141 132 136 135 124 113 104 99 93 78 86 94 98 97 88 70 50 74 72 32 5 8 1 201 173 175 203 206 205 210 212 216 224
165 162 154 156 155 153 148 144 141 140 146 142 134 134 131 121 117 107 106 100 91 92 77 69 77 83 30 62 113 91 33 356 347 337 206 174 179 178 194 206 208 212 218
172 168 165 162 159 155 146 129 121 106 98 100 124 139 144 133 124 117 113 107 94 103 97 84 82 101 79 23 79 135 140 200 296 334 320 249 183 167 199 202 202 208 213
177 169 163 163 161 158 149 143 147 148 154 175 171 166 159 150 141 133 121 113 105 107 110 107 92 99 106 65 16 37 141 155 143 305 328 321 300 214 209 201 192 200 205
171 167 165 163 166 166 157 154 153 150 158 156 151 153 158 158 159 150 135 126 120 116 117 107 95 89 99 109 87 55 56 56 82 131 228 313 332 305 259 227 195 193 194
166 164 166 165 170 172 163 157 156 156 157 152 158 168 175 175 170 168 154 144 143 136 134 127 117 107 104 101 94 90 105 105 112 127 162 254 288 294 289 266 220 207 199
Height
1531 1533 1536 1537 1539 1540 1541 1542 1543 1544 1545 1546 1547 1548 1549 1550 1551 1552 1552 1553 1554 1554 1555 1555 1555 1555 1555 1555 1555 1556 1556 1556 1556 1557 1557 1558 1559 1560 1560 1561 1562 1562 1563
1529 1532 1536 1538 1539 1541 1542 1543 1544 1545 1546 1547 1548 1549 1550 1551 1551 1552 1553 1554 1554 1555 1556 1556 1556 1556 1556 1556 1557 1557 1557 1558 1558 1559 1559 1560 1561 1561 1562 1563 1564 1564 1565
1528 1532 1535 1538 1539 1541 1542 1543 1544 1545 1546 1547 1548 1549 1550 1551 1552 1553 1554 1555 1555 1556 1557 1557 1558 1558 1558 1558 1558 1559 1559 1559 1560 1561 1561 1562 1563 1563 1564 1565 1566 1566 1567
1528 1532 1535 1538 1540 1541 1543 1544 1545 1546 1547 1548 1549 1550 1551 1552 1553 1554 1555 1556 1556 1557 1558 1559 1559 1559 1559 1560 1560 1560 1561 1561 1562 1562 1563 1564 1564 1565 1566 1567 1567 1568 1569
1529 1532 1535 1538 1540 1541 1543 1544 1545 1546 1547 1548 1549 1551 1552 1553 1554 1555 1556 1557 1557 1558 1559 1560 1560 1561 1561 1562 1562 1562 1563 1563 1564 1564 1565 1566 1566 1567 1567 1568 1569 1570 1571
1529 1533 1536 1538 1540 1542 1543 1544 1545 1547 1548 1549 1550 1551 1552 1554 1555 1555 1556 1557 1558 1559 1560 1561 1562 1562 1563 1564 1564 1564 1565 1565 1566 1566 1566 1567 1568 1569 1569 1570 1571 1571 1572
1530 1533 1536 1539 1541 1542 1544 1545 1546 1547 1548 1549 1551 1552 1553 1554 1555 1556 1557 1558 1559 1560 1561 1562 1563 1564 1565 1566 1566 1566 1566 1566 1567 1567 1568 1569 1569 1570 1571 1572 1572 1573 1574
1530 1533 1536 1539 1541 1543 1544 1545 1546 1547 1549 1550 1551 1552 1553 1555 1556 1557 1558 1559 1560 1561 1562 1563 1564 1565 1566 1567 1568 1568 1567 1568 1568 1569 1570 1570 1571 1572 1572 1573 1574 1574 1575
1530 1533 1536 1539 1541 1543 1544 1546 1547 1548 1549 1550 1551 1552 1554 1555 1556 1557 1558 1559 1560 1562 1563 1564 1565 1566 1568 1568 1569 1569 1569 1569 1570 1571 1571 1572 1573 1573 1574 1574 1575 1576 1576
1530 1533 1535 1538 1540 1542 1544 1546 1547 1548 1549 1550 1552 1553 1554 1555 1556 1558 1559 1560 1561 1562 1563 1564 1566 1567 1568 1569 1570 1570 1570 1571 1572 1572 1573 1573 1574 1575 1575 1575 1576 1577 1578
1529 1533 1535 1538 1540 1542 1544 1546 1547 1549 1550 1551 1552 1553 1554 1555 1556 1558 1559 1560 1561 1562 1563 1564 1566 1567 1568 1569 1570 1571 1571 1572 1572 1573 1574 1574 1575 1576 1576 1577 1577 1578 1579
1527 1531 1534 1537 1540 1542 1544 1546 1547 1549 1550 1551 1552 1553 1554 1555 1556 1558 1559 1560 1561 1562 1563 1564 1565 1567 1568 1569 1570 1571 1571 1572 1573 1573 1574 1575 1576 1576 1577 1577 1578 1579 1579
1525 1529 1533 1536 1539 1542 1544 1545 1547 1549 1550 1551 1552 1553 1554 1555 1556 1557 1558 1559 1560 1561 1563 1564 1565 1566 1568 1569 1570 1571 1571 1572 1573 1573 1574 1575 1576 1577 1577 1578 1579 1579 1580
1524 1527 1531 1534 1538 1541 1543 1545 1547 1548 1550 1551 1552 1553 1554 1555 1556 1557 1557 1558 1560 1561 1562 1563 1565 1566 1567 1569 1569 1570 1571 1572 1572 1573 1574 1575 1576 1577 1577 1578 1579 1580 1580
1522 1526 1529 1533 1537 1540 1542 1545 1547 1548 1550 1551 1552 1553 1554 1555 1555 1556 1557 1557 1559 1560 1561 1563 1564 1565 1567 1568 1569 1569 1570 1571 1572 1573 1573 1574 1575 1576 1577 1578 1579 1580 1580
1519 1523 1527 1531 1536 1538 1541 1544 1546 1548 1549 1551 1552 1553 1554 1554 1555 1555 1556 1557 1558 1559 1560 1562 1563 1564 1565 1567 1568 1569 1569 1570 1571 1572 1573 1574 1575 1576 1576 1577 1578 1579 1580
1517 1521 1525 1528 1533 1537 1540 1543 1545 1547 1549 1550 1552 1552 1553 1553 1554 1554 1555 1556 1557 1558 1559 1560 1562 1563 1564 1566 1567 1568 1569 1570 1570 1571 1572 1573 1574 1575 1576 1576 1577 1578 1579
1515 1519 1523 1526 1531 1535 1538 1541 1544 1546 1548 1550 1551 1552 1552 1552 1553 1553 1554 1555 1556 1557 1558 1560 1561 1562 1564 1565 1566 1567 1568 1569 1570 1571 1571 1572 1573 1574 1575 1576 1576 1577 1578
1514 1517 1522 1525 1528 1533 1537 1540 1543 1545 1548 1549 1550 1551 1551 1551 1552 1552 1553 1554 1555 1556 1558 1559 1561 1562 1563 1564 1566 1567 1568 1568 1569 1569 1570 1571 1572 1573 1573 1574 1575 1576 1577
1512 1516 1520 1524 1527 1531 1535 1538 1542 1544 1547 1548 1549 1550 1550 1551 1551 1552 1553 1554 1555 1556 1557 1559 1560 1561 1563 1564 1565 1566 1567 1568 1568 1569 1569 1570 1571 1571 1572 1573 1574 1575 1575
1511 1514 1518 1522 1526 1530 1533 1536 1539 1543 1545 1547 1548 1549 1550 1550 1551 1552 1552 1553 1554 1555 1557 1558 1559 1561 1562 1563 1564 1566 1567 1568 1568 1568 1569 1569 1570 1570 1571 1572 1572 1573 1573
1508 1512 1517 1521 1525 1529 1532 1535 1539 1542 1544 1546 1548 1549 1549 1550 1550 1551 1552 1553 1554 1555 1556 1557 1559 1560 1561 1562 1564 1565 1566 1568 1568 1568 1568 1569 1569 1570 1570 1571 1571 1572 1572
1508 1511 1515 1519 1523 1528 1532 1535 1538 1541 1543 1545 1547 1548 1549 1550 1550 1551 1552 1553 1554 1555 1556 1557 1558 1560 1561 1562 1563 1564 1565 1566 1567 1568 1568 1568 1569 1569 1569 1570 1570 1570 1571
1506 1511 1514 1518 1523 1527 1530 1533 1536 1538 1541 1544 1546 1547 1548 1549 1550 1550 1551 1552 1553 1554 1555 1556 1558 1559 1560 1561 1562 1563 1564 1564 1566 1567 1568 1568 1568 1568 1569 1569 1569 1569 1570
1506 1509 1513 1518 1522 1526 1529 1533 1535 1538 1541 1543 1545 1547 1548 1548 1549 1550 1551 1552 1553 1554 1555 1556 1557 1559 1560 1561 1562 1562 1563 1564 1564 1565 1566 1567 1567 1568 1568 1568 1568 1568 1568
1506 1509 1513 1517 1520 1524 1528 1531 1534 1537 1539 1542 1544 1546 1547 1548 1549 1550 1551 1552 1553 1553 1554 1555 1557 1558 1559 1560 1561 1562 1563 1563 1564 1564 1565 1565 1566 1566 1567 1567 1567 1567 1567